Location: Krasnoyarskiy Pitomnik
(51.1333°N, 71.6167°E)
Time: 17:09:45
(UTC+00:00)

Transit 2A - All Passes

Search period start: 13 April 2024 00:00
Search period end: 23 April 2024 00:00
Orbit: 597 x 955 km, 66.7° (Epoch: 12 April)

Date Brightness Start Highest point End Pass type
(mag) Time Alt. Az. Time Alt. Az. Time Alt. Az.
13 Apr - 02:13:47 10° SE 02:15:55 13° ESE 02:18:07 10° ENE daylight
13 Apr - 03:53:45 10° SW 03:58:09 88° SE 04:02:56 10° NE daylight
13 Apr - 05:38:14 10° W 05:41:56 23° NNW 05:45:52 10° NNE daylight
13 Apr - 07:24:25 10° NNW 07:26:53 14° N 07:29:26 10° NNE daylight
13 Apr - 09:08:21 10° NNW 09:11:59 19° NNE 09:15:51 10° ENE daylight
13 Apr - 10:51:05 10° NNW 10:56:12 52° NE 11:01:51 10° ESE daylight
13 Apr - 12:34:20 10° NW 12:39:16 37° WSW 12:44:37 10° S daylight
14 Apr - 03:18:45 10° SSW 03:23:05 61° ESE 03:27:45 10° NE daylight
14 Apr - 05:02:36 10° W 05:06:33 29° NW 05:10:48 10° NNE daylight
14 Apr - 06:48:44 10° NW 06:51:20 14° N 06:54:03 10° NNE daylight
14 Apr - 08:33:14 10° NNW 08:36:30 17° NNE 08:39:58 10° ENE daylight
14 Apr - 10:16:01 10° NNW 10:20:58 41° NE 10:26:22 10° ESE daylight
14 Apr - 11:59:03 10° NW 12:04:15 51° WSW 12:09:56 10° SSE daylight
15 Apr - 02:43:56 10° S 02:48:05 42° ESE 02:52:30 10° NE daylight
15 Apr - 04:27:03 10° WSW 04:31:14 37° NW 04:35:45 10° NNE daylight
15 Apr - 06:12:57 10° NW 06:15:48 15° NNW 06:18:47 10° NNE daylight
15 Apr - 07:58:03 10° NNW 08:01:00 15° NNE 08:04:05 10° NE daylight
15 Apr - 09:40:59 10° NNW 09:45:40 33° NE 09:50:46 10° E daylight
15 Apr - 11:23:51 10° NW 11:29:11 69° SW 11:35:02 10° SSE daylight
15 Apr - 13:08:45 10° WNW 13:11:34 14° WSW 13:14:27 10° SW daylight
16 Apr - 02:09:20 10° S 02:13:08 29° ESE 02:17:08 10° NE daylight
16 Apr - 03:51:38 10° WSW 03:55:58 48° NW 04:00:41 10° NNE daylight
16 Apr - 05:37:09 10° WNW 05:40:17 17° NNW 05:43:37 10° NNE daylight
16 Apr - 07:22:46 10° NNW 07:25:28 14° N 07:28:16 10° NE daylight
16 Apr - 09:05:56 10° NNW 09:10:19 27° NNE 09:15:03 10° E daylight
16 Apr - 10:48:43 10° NW 10:54:04 89° NE 10:59:59 10° SE daylight
16 Apr - 12:32:46 10° WNW 12:36:41 20° WSW 12:40:49 10° SSW daylight
17 Apr - 01:35:02 10° SSE 01:38:14 20° ESE 01:41:35 10° ENE daylight
17 Apr - 03:16:20 10° SW 03:20:45 67° NW 03:25:35 10° NE daylight
17 Apr - 05:01:22 10° WNW 05:04:49 20° NNW 05:08:30 10° NNE daylight
17 Apr - 06:47:21 10° NNW 06:49:55 14° N 06:52:34 10° NNE daylight
17 Apr - 08:30:51 10° NNW 08:34:55 22° NNE 08:39:15 10° E daylight
17 Apr - 10:13:36 10° NW 10:18:55 68° NE 10:24:46 10° SE daylight
17 Apr - 11:57:11 10° WNW 12:01:45 28° WSW 12:06:40 10° SSW daylight
18 Apr - 01:01:16 10° SE 01:03:24 13° ESE 01:05:36 10° ENE daylight
18 Apr - 02:41:11 10° SW 02:45:37 87° SE 02:50:27 10° NE daylight
18 Apr - 04:25:39 10° W 04:29:24 24° NNW 04:33:24 10° NNE daylight
18 Apr - 06:11:47 10° NW 06:14:20 14° N 06:17:01 10° NNE daylight
18 Apr - 07:55:46 10° NNW 07:59:29 19° NNE 08:03:24 10° ENE daylight
18 Apr - 09:38:31 10° NNW 09:43:43 52° NE 09:49:24 10° ESE daylight
18 Apr - 11:21:47 10° NW 11:26:47 38° WSW 11:32:12 10° S daylight
19 Apr - 02:06:11 10° SSW 02:10:32 61° ESE 02:15:16 10° NE daylight
19 Apr - 03:50:01 10° W 03:54:01 29° NW 03:58:21 10° NNE daylight
19 Apr - 05:36:06 10° NW 05:38:47 15° N 05:41:37 10° NNE daylight
19 Apr - 07:20:39 10° NNW 07:23:59 17° NNE 07:27:31 10° ENE daylight
19 Apr - 09:03:28 10° NNW 09:08:27 41° NE 09:13:55 10° ESE daylight
19 Apr - 10:46:30 10° NW 10:51:45 51° WSW 10:57:30 10° SSE daylight
20 Apr - 01:31:22 10° S 01:35:32 41° ESE 01:40:00 10° NE daylight
20 Apr - 03:14:27 10° WSW 03:18:41 37° NW 03:23:16 10° NNE daylight
20 Apr - 05:00:20 10° NW 05:03:15 16° NNW 05:06:20 10° NNE daylight
20 Apr - 06:45:27 10° NNW 06:48:28 15° NNE 06:51:39 10° NE daylight
20 Apr - 08:28:24 10° NNW 08:33:09 33° NE 08:38:19 10° E daylight
20 Apr - 10:11:18 10° NW 10:16:41 70° WSW 10:22:36 10° SSE daylight
20 Apr - 11:56:08 10° WNW 11:59:04 14° WSW 12:02:06 10° SW daylight
21 Apr - 00:56:47 10° S 01:00:35 28° ESE 01:04:38 10° NE daylight
21 Apr - 02:39:02 10° WSW 02:43:25 49° NW 02:48:12 10° NNE daylight
21 Apr - 04:24:32 10° WNW 04:27:44 18° NNW 04:31:09 10° NNE daylight
21 Apr - 06:10:08 10° NNW 06:12:55 15° N 06:15:49 10° NE daylight
21 Apr - 07:53:21 10° NNW 07:57:48 27° NNE 08:02:35 10° E daylight
21 Apr - 09:36:09 10° NW 09:41:34 88° NE 09:47:32 10° SE daylight
21 Apr - 11:20:11 10° WNW 11:24:11 20° WSW 11:28:25 10° SSW daylight
22 Apr - 00:22:29 10° SSE 00:25:41 20° ESE 00:29:03 10° ENE daylight
22 Apr - 02:03:44 10° SW 02:08:12 68° NW 02:13:05 10° NE daylight
22 Apr - 03:48:45 10° WNW 03:52:16 20° NNW 03:56:02 10° NNE daylight
22 Apr - 05:34:42 10° NNW 05:37:21 14° N 05:40:08 10° NE daylight
22 Apr - 07:18:16 10° NNW 07:22:23 23° NNE 07:26:47 10° E daylight
22 Apr - 09:01:02 10° NW 09:06:24 68° NE 09:12:19 10° SE daylight
22 Apr - 10:44:36 10° NW 10:49:16 28° WSW 10:54:15 10° S daylight
22 Apr - 23:48:43 10° SE 23:50:52 13° ESE 23:53:05 10° ENE daylight
